www.pogodaiklimat.ru

Погода и климат >> Архив погоды >> Мексика >> La Paz


ПОГОДА в La Paz

  • Прогноз погоды в La Paz
  • Монитор погоды в La Paz
  • Климат города

АРХИВ ПОГОДЫ в La Paz

Время (UTC), дата Ветер
(напр.,м/с)
 
Видим.   Явления Облачность Т
(С)
Тd
(С)
f
(%)
Тe
(С)
Тes
(С)
Комфортность P
(гПа)
Po
(гПа)
Тmin
(С)
Tmax
(С)
R
(мм)
R24
(мм)
S
(см)
18 9.08 Ю 1 30 км 1/0
[Ci fib]
+35.9 +23.3 48 +46 +68 опасность
перегрева
1011.2 1009.2 +25.4 +35.9
21 9.08 С 5 30 км 1/1 1200 м
[Sc diur, vesp]
+37.8 +22.5 42 +47 +56 опасность
перегрева
1009.2 1007.2
00 10.08 СЗ 3 30 км 4/1 1000 м
[Sc diur, vesp Ac trans Cs]
+38.3 +23.3 42 +48 +50 опасность
перегрева
1008.2 1006.2 +25.4 +39.7
03 10.08 Ю 3 2000 м 3/0 2000 м
[Ac trans Cs]
+31.6 +23.6 63 +43 +43 опасность
перегрева
1010.1 1008.1
06 10.08 Ю 4 2000 м ясно +28.0 +23.3 76 +38 +38 очень
душно
1011.5 1009.5 +25.4 +39.7
09 10.08 Ю 3 2000 м 1/0
[Ci fib]
+26.4 +23.4 84 +36 +36 очень
душно
1011.9 1009.9
12 10.08 Ю 4 2000 м ясно +25.4 +23.6 90 +35 +35 очень
душно
1011.5 1009.4 +25.4 +39.7
15 10.08 Ю 4 25 км ясно +28.0 +22.7 73 +37 +40 очень
душно
1012.0 1009.9
18 10.08 СЗ 2 30 км 1/0
[Ci fib]
+36.0 +22.7 46 +45 +64 опасность
перегрева
1010.8 1009.8 +25.4 +36.9
21 10.08 С 3 30 км 4/0
[Ci fib]
+37.9 +23.0 43 +48 +62 опасность
перегрева
1009.4 1007.4
00 11.08 С 2 30 км 6/0
[Ci fib]
+38.8 +23.4 42 +49 +52 опасность
перегрева
1007.6 1005.6 +25.4 +39.7
03 11.08 СЗ 2 2000 м 6/0 2000 м
[As trans Ci fib]
+33.6 +24.3 58 +46 +46 опасность
перегрева
1008.4 1006.4
06 11.08 Ю 3 2000 м 4/0
[Ci fib]
+28.8 +24.7 79 +41 +41 опасность
перегрева
1010.3 1008.3 +25.4 +39.7
09 11.08 Ю 3 2000 м 4/0
[Ci fib]
+26.6 +24.1 86 +37 +37 очень
душно
1009.0 1007.0
12 11.08 Ю 3 2000 м 1/0
[Ci fib]
+25.8 +23.9 89 +35 +35 очень
душно
1008.1 1006.1 +25.4 +39.7
15 11.08 Ю 3 25 км 6/0
[Ci fib]
+28.3 +24.2 78 +39 +43 очень
душно
1009.0 1006.9
18 11.08 СЗ 3 30 км 6/0
[Ci fib]
+36.9 +25.4 52 +51 +65 опасность
перегрева
1009.3 1007.2 +25.4 +37.2
21 11.08 СЗ 5 30 км 6/3 1200 м
[Sc diur, vesp Cs]
+37.0 +25.9 53 +52 +58 опасность
перегрева
1008.1 1006.1
00 12.08 З 4 25 км 8/3 1000 м
[Sc diur, vesp As trans]
+36.2 +27.1 60 +55 +56 опасность
перегрева
1007.7 1005.7 +25.4 +39.2
03 12.08 ЮЗ 3 2000 м 4/0 2000 м
[As trans]
+31.2 +24.0 66 +43 +43 опасность
перегрева
1009.4 1007.4
06 12.08 Ю 1 2000 м 6/0 2000 м
[As op]
+29.4 +24.5 75 +42 +42 опасность
перегрева
1010.6 1008.6 +25.4 +39.2
09 12.08 Ю 1 2000 м 6/0 2000 м
[Ac und]
+29.0 +24.4 76 +41 +41 опасность
перегрева
1011.0 1008.9
12 12.08 штиль 0 2000 м 6/0 2000 м
[Ac trans]
+29.6 +24.2 73 +41 +41 опасность
перегрева
1010.1 1008.1 +28.0 +39.2
15 12.08 З 2 25 км 6/0 2000 м
[Ac trans]
+31.6 +25.9 72 +47 +50 опасность
перегрева
1011.7 1009.7
18 12.08 СЗ 3 25 км 6/5 1110 м
[Sc diur, vesp Ci fib]
+35.4 +25.9 58 +51 +58 опасность
перегрева
1011.2 1009.1 +27.6 +35.8
21 12.08 В 4 25 км 6/4 1020 м
[Cb cap Ac trans]
+39.8 +27.1 49 +57 +63 опасность
перегрева
1009.4 1007.4
00 13.08 ЮЗ 3 25 км 10/6 1000 м
[Sc diur, vesp Ac lent Cs]
+35.2 +26.4 60 +51 +52 опасность
перегрева
1009.2 1007.2 +27.6 +41.8
03 13.08 З 3 2000 м 5/1 1110 м
[Sc diur, vesp Ac trans]
+33.2 +26.3 67 +49 +49 опасность
перегрева
1010.7 1008.7
06 13.08 СЗ 2 2000 м 4/0 2000 м
[As trans Ci fib]
+31.2 +26.2 75 +47 +47 опасность
перегрева
1011.0 1009.0 +27.6 +41.8
09 13.08 Ю 1 2000 м 4/0
[Ci fib]
+29.4 +25.9 81 +44 +44 опасность
перегрева
1010.6 1008.6
12 13.08 Ю 1 2000 м 4/0
[Ci fib]
+28.8 +25.6 83 +43 +43 опасность
перегрева
1011.3 1009.2 +28.4 +41.8
15 13.08 С 1 25 км 3/0
[Ci fib]
+30.4 +25.9 77 +45 +51 опасность
перегрева
1012.7 1010.7
18 13.08 СЗ 4 30 км 4/3 1200 м
[Sc diur, vesp Ci fib]
+33.7 +26.3 65 +50 +59 опасность
перегрева
1012.5 1010.5 +28.0 +33.7
21 13.08 С 4 30 км 5/4 1200 м
[Cb cap Ci fib]
+36.5 +26.2 56 +53 +60 опасность
перегрева
1010.3 1008.3
00 14.08 Ю 3 25 км 6/4 600 м
[Cb cap Ac trans Cs]
+29.3 +25.8 81 +43 +45 опасность
перегрева
1010.8 1008.8 3
03 14.08 Ю 2 2000 м 3/0 2000 м
[Ac trans]
+29.8 +26.4 82 +46 +46 опасность
перегрева
1011.7 1009.6
06 14.08 Ю 1 2000 м 3/0 2000 м
[Ac trans]
+28.2 +26.3 89 +43 +43 опасность
перегрева
1012.5 1010.5 +28.0 +37.7
09 14.08 Ю 1 2000 м 1/0 2000 м
[]
+27.4 +26.1 93 +41 +41 опасность
перегрева
1011.9 1009.8
12 14.08 ЮВ 2 2000 м ясно +27.4 +25.2 88 +40 +40 очень
душно
1011.0 1009.0 +27.2 +37.7
15 14.08 ЮВ 2 25 км 3/0 2000 м
[Ac trans Ci fib]
+30.0 +25.5 77 +44 +48 опасность
перегрева
1011.9 1009.8
18 14.08 ЮЗ 1 30 км 6/1 1200 м
[Sc diur, vesp Cs]
+36.0 +26.7 59 +53 +71 опасность
перегрева
1011.9 1009.9 +27.2 +36.9
21 14.08 СЗ 4 25 км 8/3 1200 м
[Sc diur, vesp As trans]
+36.0 +26.0 57 +52 +57 опасность
перегрева
1009.0 1007.0
00 15.08 Ю 4 25 км 9/4 1000 м
[Sc diur, vesp Ac trans Ci fib]
+35.6 +25.2 55 +49 +50 опасность
перегрева
1008.4 1006.4 +27.2 +38.3
03 15.08 Ю 3 2000 м 6/0 2000 м
[Ac und Cs]
+32.4 +24.6 64 +45 +45 опасность
перегрева
1010.3 1008.3
06 15.08 Ю 3 2000 м ясно +29.0 +25.5 81 +43 +43 опасность
перегрева
1012.2 1010.2 +27.2 +38.3
09 15.08 Ю 3 2000 м 4/0 2000 м
[Ac trans]
+28.0 +25.9 88 +42 +42 опасность
перегрева
1011.4 1009.3
12 15.08 Ю 3 2000 м ясно +27.2 +25.3 89 +39 +39 очень
душно
1010.8 1008.7 +27.2 +38.3
15 15.08 Ю 3 25 км 4/0 2000 м
[Ac trans Ci fib]
+29.6 +24.5 74 +42 +45 опасность
перегрева
1011.9 1009.9
18 15.08 З 3 30 км 6/1 1200 м
[Sc diur, vesp Cs]
+35.5 +25.4 56 +50 +62 опасность
перегрева
1011.0 1008.9 +27.0 +35.5
21 15.08 СЗ 4 25 км 8/4 1200 м
[Sc diur, vesp Cs]
+37.8 +23.5 44 +48 +54 опасность
перегрева
1009.4 1007.4
00 16.08 С 3 25 км 9/5 1000 м
[Sc diur, vesp As op]
+37.8 +24.7 47 +50 +51 опасность
перегрева
1008.9 1006.9 +27.0 +39.2
03 16.08 Ю 4 2000 м 4/0 2000 м
[Ac cast Ci fib]
+30.4 +25.6 76 +45 +45 опасность
перегрева
1010.1 1008.1
06 16.08 Ю 5 2000 м ясно +28.5 +25.4 83 +42 +42 опасность
перегрева
1012.6 1010.6 +27.0 +39.2
09 16.08 Ю 4 2000 м 1/0 2000 м
[Ac trans]
+27.4 +25.2 88 +40 +40 очень
душно
1011.6 1009.6
12 16.08 Ю 3 2000 м ясно +26.4 +24.8 91 +38 +38 очень
душно
1011.7 1009.6 +26.4 +39.2
15 16.08 Ю 3 25 км 3/0
[Ci fib]
+28.4 +24.7 80 +40 +44 очень
душно
1012.5 1010.4

 

Местоположение метеостанции La Paz (Мексика): широта 24.17 долгота -110.30 высота над уровнем моря 18 м.

В архиве по умолчанию представлена погода в La Paz за последнюю неделю. Архивные данные за месяц целиком и за предыдущие месяцы, начиная с января 2011 года, Вы можете получить, выбрав интересующий диапазон дат из раскрывающегося списка и нажав кнопку "Ввод!".

Внимание! Время в таблицах - всемирное. Для получения местного времени необходимо прибавить поправку, которая в La Paz равна -6 ч.

Смотрите также архив погоды в соседних городах и на ближайших метеорологических станциях:

Погода в Ciudad Constitucion (Мексика) (166 км)
Погода в Loreto (Мексика) (229 км)
Погода в Culiacan (Мексика) (302 км)
Погода в Choix (Мексика) (354 км)
Погода в Ciudad Obregon (Мексика) (361 км)
Погода в Santa Rosalia (Мексика) (397 км)
Погода в Colonia Juan Carras-Co (Мексика) (412 км)
Погода в Guaymas Upper Air Site (Мексика) (421 км)
Погода в Empalme (Мексика) (422 км)
Погода в Tepehuanes (Мексика) (481 км)

Пояснения к столбцам:

Ветер - указаны скорость ветра в м/с - средняя за 10 мин, порывы в срок и между сроками (в фигурных скобках) и направление, откуда дует ветер: С - северный, СВ - северо-восточный, В - восточный, ЮВ - юго-восточный, Ю - южный, ЮЗ - юго-западный, З - западный, СЗ - северо-западный.
Видимость - горизонтальная дальность видимости в метрах или километрах. При видимости от 1 до 10 км при отсутствии осадков обычно наблюдается дымка, при ухудшении видимости до 1 км и менее - туман. В сухую погоду видимость может ухудшаться дымом, пылью или мглою.
Явления - указаны атмосферные явления, наблюдавшиеся в срок или в последний час перед сроком; фигурными скобками обозначены явления, наблюдавшиеся между сроками (за 1-3 часа до срока); квадратными скобками обозначены град или гололедные отложения с указанием их диаметра в мм.
Облачность - указаны через наклонную черту общая и нижняя облачность в баллах и высота нижней границы облаков в метрах; квадратными скобками обозначены формы облаков: Ci - перистые, Cs - перисто-слоистые, Cc - перисто-кучевые, Ac - высококучевые, As - высокослоистые, Sc - слоисто-кучевые, Ns - слоисто-дождевые, Cu - кучевые, Cb - кучево-дождевые. Подробнее классификацию облаков см. в Атласе облаков (PDF).
T - Температура воздуха - температура, измеренная на высоте 2 м над землей.
Td - Температура точки росы - температура, при понижении до которой содержащийся в воздухе водяной пар достигнет насыщения.
f - Относительная влажность воздуха - влажноcть воздуха, измеренная на высоте 2 м над землей.
Te - Эффективная температура - температура, которую ощущает одетый по сезону человек в тени. Характеристика душности погоды. При расчете учитывается влияние влажности воздуха и скорости ветра на теплоощущения человека.
Tes - Эффективная температура на солнце - температура, которую ощущает человек, с поправкой на солнечный нагрев. Характеристика знойности погоды. Зависит от высоты солнца над горизонтом, облачности и скорости ветра. Ночью, в пасмурную погоду, а также при ветре 12 м/с и более поправка равна нулю.
P - Атмосферное давление - приведенное к уровню моря атмосферное давление.
Po - Атмосферное давление - измеренное на уровне метеостанции атмосферное давление.
Tmin - Минимальная температура - минимум температуры воздуха на высоте 2 м над землей.
Tmax - Максимальная температура - максимум температуры воздуха на высоте 2 м над землей.
R - Количество осадков - Количество выпавших осадков за период времени, мм. При наведении курсора мыши на число - период времени, за который выпало указанное количество осадков.
R24 - Количество осадков - Количество выпавших осадков за 24 часа, мм.
S - Снежный покров - Высота снежного покрова, см. При наведении курсора мыши на число - состояние снежного покрова и степень покрытия местности в баллах.